Regional Weather Roundup
Issued by NWS

Home | Current Version | Previous Version | Graphics & Text | Print | Product List | Glossary On
Versions: 1 2 3 4 5 6 7 8 9 10 11 12 13 14 15 16 17 18 19 20 21 22 23 24 25 26 27 28 29 30 31 32 33 34 35 36 37 38 39 40 41 42 43 44 45 46 47 48 49 50
000
ASUS43 KMPX 222110
RWRMN
WEATHER ROUNDUP FOR MINNESOTA
NATIONAL WEATHER SERVICE TWIN CITIES/CHANHASSEN MN
300 PM CST SAT NOV 22 2014


NOTE: "FAIR" INDICATES FEW OR NO CLOUDS BELOW 12,000 FEET WITH NO
SIGNIFICANT WEATHER AND/OR OBSTRUCTIONS TO VISIBILITY. N/A MEANS
CURRENT SKY AND/OR WEATHER CONDITIONS ARE NOT AVAILABLE.

MNZ060>063-068>070-222200-
   Twin Cities Metro

CITY           SKY/WX    TMP DP  RH WIND       PRES   REMARKS
TWIN CITIES    CLOUDY    35  33  92 S7        29.68S FOG     WCI  29
ST PAUL        CLOUDY    35  33  92 S9        29.69F FOG     WCI  28
CRYSTAL        CLOUDY    36  33  89 SE9       29.66F FOG
BLAINE         CLOUDY    37  36  93 S6        29.66F FOG
LAKEVILLE      CLOUDY    34  34 100 S10       29.68S FOG     WCI  26
EDEN PRAIRIE   CLOUDY    35  34  96 S10       29.66F FOG     WCI  27
SOUTH ST PAUL  CLOUDY    36  34  92 S3        29.68F FOG
LAKE ELMO      CLOUDY    34  34 100 S9        29.69S FOG     WCI  26
$$
MNZ001>005-007-008-013>017-022>024-027-028-222200-
   Northwest Minnesota

CITY           SKY/WX    TMP DP  RH WIND       PRES   REMARKS
BEMIDJI        MOSUNNY   41  30  65 S7        29.52F
HALLOCK        CLOUDY    37  30  75 E7        29.47F
ROSEAU         CLOUDY    36  30  80 E8        29.51F
WARROAD        CLOUDY    32  28  86 NE7       29.53F FOG     WCI  26
THIEF RVR FALL PTSUNNY   36  28  75 E8        29.49F
CROOKSTON      CLOUDY    37  32  81 S13       29.48F
FOSSTON        CLOUDY    37  34  87 SE3       29.50F
DETROIT LAKES  CLOUDY    41  32  70 SE7       29.51F
MOORHEAD       PTSUNNY   43  34  70 SE10      29.47F
PARK RAPIDS    PTSUNNY   44  31  60 SE7       29.52F
MAHNOMEN       FAIR      43  32  64 SE6       29.48F
$$
MNZ006-009>011-018-025>026-222200-
   North Central Minnesota

CITY           SKY/WX    TMP DP  RH WIND       PRES   REMARKS
BAUDETTE       CLOUDY    36  30  79 SE6       29.53F
FLAG ISLAND    CLOUDY    32  28  86 CALM      29.53F
INTL FALLS     CLOUDY    36  30  79 E3        29.56F
WASKISH        SUNNY     43  32  65 CALM      29.53F
BIG FORK       SUNNY     43  30  61 S7        29.55F
LONGVILLE      MOSUNNY   43  30  61 S6        29.55F
GRAND RAPIDS   SUNNY     41  28  60 S9        29.57S
CRANE LAKE     CLOUDY    36  30  80 CALM      29.60F
ORR            SUNNY     39  28  65 CALM      29.55F
COOK           SUNNY     34  30  86 SE9       29.59S WCI  26
WALKER         FAIR      39  30  69 CALM      29.53F
$$
MNZ012-019>021-037-222200-
   Northeast Minnesota

CITY           SKY/WX    TMP DP  RH WIND       PRES   REMARKS
DULUTH         CLOUDY    35  30  82 S10       29.62F HAZE    WCI  27
ELY            CLOUDY    34  30  86 S6        29.60S FOG     WCI  29
HIBBING        SUNNY     43  28  55 VRB5      29.57F
EVELETH        SUNNY     39  32  75 S3        29.59F
DULUTH HARBOR  CLOUDY    37  32  81 CALM      29.66S
TWO HARBORS    SUNNY     37  32  81 S10       29.62S
SILVER BAY     SUNNY     39  30  70 S6        29.61S
GRAND MARAIS     N/A     37  32  82 W6        29.65R
G MARAIS ARPRT CLOUDY    32  27  80 S3        29.60S
$$
MNZ029>031-032-039>041-046>048-054>057-064-222200-
   West Central Minnesota

CITY           SKY/WX    TMP DP  RH WIND       PRES   REMARKS
FERGUS FALLS   CLOUDY    39  28  65 SE12      29.51F
WHEATON        MOSUNNY   34  28  80 SE20      29.50F WCI  22
MORRIS         FOG       34  32  93 SE23      29.51F VSB 1   WCI  22
ALEXANDRIA     CLOUDY    37  30  75 SE13      29.54F
ELBOW LAKE       N/A     37  31  79 SE13      29.49F
WADENA         PTSUNNY   39  28  65 SE9       29.53F
GLENWOOD       CLOUDY    34  30  86 SE13      29.56F FOG     WCI  25
APPLETON       PTSUNNY   37  32  81 SE15      29.52F
BENSON         FOG       34  32  93 S16       29.56F VSB 3/4 WCI  23
ORTONVILLE     MOSUNNY   36  30  80 SE16      29.49F
MADISON        PTSUNNY   39  36  87 SE15      29.51F
WILLMAR        FOG       34  34 100 SE13      29.60F VSB 1/4 WCI  25
$$
MNZ033>034-036-042>043-049>051-058-059-222200-
   Central Minnesota

CITY           SKY/WX    TMP DP  RH WIND       PRES   REMARKS
ST CLOUD       CLOUDY    34  31  88 S13       29.63F FOG     WCI  25
SAUK CENTRE    FOG       32  31  98 SE12      29.58F VSB 3/4 WCI  23
PAYNESVILLE    FOG       30  31 100 E10       29.60F VSB 1/2 WCI  21
AITKIN         MOSUNNY   39  30  70 SE9       29.58S HAZE
PINE RIVER     MOSUNNY   41  30  65 SE7       29.60S
BRAINERD       MOSUNNY   35  29  78 S12       29.59F HAZE    WCI  27
STAPLES        MOSUNNY   39  28  65 SE7       29.55F
LONG PRAIRIE   PTSUNNY   32  30  93 E9        29.58F FOG     WCI  24
LITTLE FALLS   PTSUNNY   32  30  93 SE7       29.61F FOG     WCI  26
LITCHFIELD     FOG       36  36 100 SE8       29.62F VSB 3/4
BUFFALO        CLOUDY    34  32  93 S6        29.66F FOG     WCI  29
MAPLE LAKE     CLOUDY    35  34  96 SE7       29.65F FOG     WCI  29
$$
MNZ037-044-045-052-053-222200-
   East Central Minnesota

CITY           SKY/WX    TMP DP  RH WIND       PRES   REMARKS
PRINCETON      CLOUDY    36  34  93 SE9       29.64F FOG
MORA           CLOUDY    34  30  86 S9        29.66F FOG     WCI  26
CAMBRIDGE      CLOUDY    36  28  75 S8        29.64F HAZE
RUSH CITY      CLOUDY    35  32  90 S8        29.66F WCI  28
MOOSE LAKE     CLOUDY    36  32  87 CALM      29.61F HAZE
HINCKLEY       CLOUDY    34  32  93 S12       29.65F FOG     WCI  25
CLOQUET        CLOUDY    36  30  80 S3        29.62F HAZE
MCGREGOR       SUNNY     39  32  75 SE9       29.60F
$$
MNZ071>073-080-081-089-090-097-098-222200-
   Southwest Minnesota

CITY           SKY/WX    TMP DP  RH WIND       PRES   REMARKS
MONTEVIDEO     PTSUNNY   37  34  87 S16       29.55F
GRANITE FALLS  CLOUDY    36  33  91 SE14      29.57F FOG
CANBY          CLOUDY    38  33  82 SE10      29.51F
MARSHALL       CLOUDY    37  30  75 S13       29.54F
REDWOOD FALLS  CLOUDY    37  34  89 S16       29.59F FOG
OLIVIA         CLOUDY    36  34  93 SE12      29.59F FOG
PIPESTONE      CLOUDY    36  36 100 S18       29.53F FOG
WINDOM         CLOUDY    37  36  93 S13       29.60F FOG
WORTHINGTON    CLOUDY    36  36 100 S18G25    29.59F
JACKSON        CLOUDY    37  36  93 S17       29.62F FOG
TRACY          PTSUNNY   38  35  91 S18G24    29.54F FOG
SLAYTON        CLOUDY    35  35 100 S18       29.57F FOG     WCI  24
$$
MNZ065>067-074>077-082>085-091>093-222200-
   South Central Minnesota

CITY           SKY/WX    TMP DP  RH WIND       PRES   REMARKS
MANKATO        CLOUDY    36  32  87 S12       29.65F
NEW ULM        PTSUNNY   36  36 100 S16       29.62F FOG
ST JAMES       CLOUDY    37  36  93 S14       29.64F FOG
FAIRMONT       CLOUDY    37  34  87 S16       29.64F
GLENCOE        CLOUDY    36  35  98 S9        29.63F FOG
FARIBAULT      CLOUDY    36  36 100 S10       29.67F FOG
OWATONNA       CLOUDY    36  34  93 S12       29.67F FOG
WASECA         CLOUDY    36  32  87 S13       29.68F FOG
ALBERT LEA     FOG       37  37 100 S9        29.67F VSB 1/4
$$
MNZ078>079-086>088-094>096-222200-
   Southeast Minnesota

CITY           SKY/WX    TMP DP  RH WIND       PRES   REMARKS
ROCHESTER      FOG       36  35  96 S12       29.70F VSB 1/2
RED WING         N/A     37  36  93 S6        29.70S FOG
STANTON        CLOUDY    37  34  89 S6        29.67F FOG
DODGE CENTER   FOG       37  37 100 S12       29.68F VSB 1
WINONA         CLOUDY    39  36  87 S3        29.73F
AUSTIN         FOG       37  37 100 S8        29.68F VSB<1/4
PRESTON        FOG       37  36  97 S12       29.71F VSB 1/2
$$
ABBREVIATIONS USED IN REMARKS
   TC - TEMPERATURES IN CELSIUS
  WCI - WIND CHILL INDEX
   HX - HEAT INDEX
  VSB - VISIBILITY
$$


USA.gov is the U.S. government's official web portal to all federal, state and local government web resources and services.